TimeEST,TemperatureF,Dew PointF,Humidity,Sea Level PressureIn,VisibilityMPH,Wind Direction,Wind SpeedMPH,Gust SpeedMPH,PrecipitationIn,Events,Conditions,WindDirDegrees,DateUTC
12:53 AM,51.1,48.0,89,29.75,9.0,WSW,6.9,-,0.01,,Overcast,250,2007-01-06 05:53:00
1:46 AM,51.8,46.4,82,29.77,8.0,WSW,9.2,-,0.01,,Overcast,250,2007-01-06 06:46:00
1:53 AM,51.1,46.9,86,29.76,10.0,WSW,8.1,-,0.01,,Overcast,250,2007-01-06 06:53:00
2:09 AM,50.0,46.4,87,29.77,10.0,SW,6.9,-,N/A,,Overcast,230,2007-01-06 07:09:00
2:25 AM,50.0,46.4,87,29.77,10.0,WSW,8.1,-,N/A,,Overcast,250,2007-01-06 07:25:00
2:37 AM,50.0,46.4,87,29.78,10.0,WSW,6.9,-,N/A,,Overcast,240,2007-01-06 07:37:00
2:53 AM,50.0,46.9,89,29.78,10.0,WSW,10.4,-,N/A,,Overcast,240,2007-01-06 07:53:00
3:53 AM,50.0,46.0,86,29.81,9.0,WSW,6.9,-,N/A,,Overcast,240,2007-01-06 08:53:00
4:03 AM,50.0,46.4,87,29.81,10.0,SW,8.1,-,N/A,,Overcast,230,2007-01-06 09:03:00
4:09 AM,50.0,46.4,87,29.80,10.0,SW,8.1,-,N/A,,Overcast,220,2007-01-06 09:09:00
4:17 AM,50.0,46.4,87,29.80,10.0,SW,8.1,-,N/A,,Overcast,220,2007-01-06 09:17:00
4:25 AM,50.0,46.4,87,29.80,10.0,SW,10.4,-,N/A,,Overcast,220,2007-01-06 09:25:00
4:38 AM,50.0,46.4,87,29.80,9.0,SW,9.2,-,N/A,,Overcast,230,2007-01-06 09:38:00
4:53 AM,50.0,46.0,86,29.81,9.0,SW,8.1,-,N/A,,Overcast,230,2007-01-06 09:53:00
5:08 AM,50.0,46.4,87,29.81,10.0,SW,10.4,-,N/A,,Overcast,230,2007-01-06 10:08:00
5:53 AM,50.0,46.0,86,29.83,10.0,WSW,13.8,-,N/A,,Overcast,250,2007-01-06 10:53:00
6:53 AM,50.0,45.0,83,29.86,8.0,WSW,9.2,-,0.00,Rain,Light Rain,250,2007-01-06 11:53:00
7:20 AM,50.0,44.6,82,29.87,10.0,West,10.4,-,0.00,,Overcast,270,2007-01-06 12:20:00
7:46 AM,50.0,44.6,82,29.88,10.0,West,9.2,-,0.00,,Overcast,260,2007-01-06 12:46:00
7:53 AM,50.0,44.1,80,29.88,10.0,West,9.2,-,0.00,,Overcast,260,2007-01-06 12:53:00
8:10 AM,48.2,44.6,87,29.89,10.0,West,6.9,-,N/A,,Overcast,280,2007-01-06 13:10:00
8:30 AM,48.2,42.8,82,29.91,10.0,West,9.2,18.4,N/A,,Overcast,280,2007-01-06 13:30:00
8:53 AM,48.9,42.1,77,29.92,7.0,West,8.1,-,N/A,,Overcast,280,2007-01-06 13:53:00
9:53 AM,46.9,41.0,80,29.97,6.0,WNW,8.1,18.4,N/A,,Haze,300,2007-01-06 14:53:00
10:13 AM,46.4,39.2,76,29.98,6.0,WNW,8.1,-,N/A,,Haze,300,2007-01-06 15:13:00
10:53 AM,46.9,39.9,77,30.01,8.0,West,10.4,-,N/A,,Overcast,280,2007-01-06 15:53:00
11:53 AM,46.9,39.9,77,30.01,10.0,West,9.2,-,N/A,,Overcast,280,2007-01-06 16:53:00
12:06 PM,48.2,39.2,71,30.00,10.0,WNW,10.4,-,N/A,,Overcast,290,2007-01-06 17:06:00
12:53 PM,46.0,37.0,71,30.03,10.0,WNW,8.1,-,N/A,,Overcast,300,2007-01-06 17:53:00
1:44 PM,46.4,37.4,71,30.02,10.0,WNW,10.4,-,N/A,,Overcast,290,2007-01-06 18:44:00
1:53 PM,46.0,37.0,71,30.03,10.0,WNW,8.1,-,N/A,,Mostly Cloudy,290,2007-01-06 18:53:00
2:08 PM,46.4,35.6,66,30.04,10.0,WNW,8.1,-,N/A,,Overcast,290,2007-01-06 19:08:00
2:53 PM,45.0,36.0,71,30.05,10.0,NNW,9.2,-,N/A,,Overcast,330,2007-01-06 19:53:00
3:53 PM,45.0,36.0,71,30.07,10.0,NW,8.1,-,N/A,,Overcast,310,2007-01-06 20:53:00
4:53 PM,44.1,35.1,71,30.10,10.0,Variable,3.5,-,N/A,,Overcast,0,2007-01-06 21:53:00
5:53 PM,43.0,34.0,71,30.12,10.0,WSW,4.6,-,N/A,,Overcast,250,2007-01-06 22:53:00
6:53 PM,39.0,34.0,82,30.16,10.0,Calm,Calm,-,N/A,,Scattered Clouds,0,2007-01-06 23:53:00
7:53 PM,37.0,32.0,82,30.17,10.0,Calm,Calm,-,N/A,,Clear,0,2007-01-07 00:53:00
8:53 PM,34.0,30.9,89,30.18,8.0,NW,3.5,-,N/A,,Clear,320,2007-01-07 01:53:00
9:53 PM,33.1,30.0,89,30.19,6.0,Calm,Calm,-,N/A,,Clear,0,2007-01-07 02:53:00
10:53 PM,33.1,30.0,89,30.19,6.0,Calm,Calm,-,N/A,,Clear,0,2007-01-07 03:53:00
11:53 PM,35.1,30.9,85,30.20,6.0,Calm,Calm,-,N/A,,Partly Cloudy,0,2007-01-07 04:53:00